[[{"header":{"parameterUnit":"m.s-1","parameterCategory":1,"la1":30.2991,"la2":30.254,"lo1":-89.0895,"lo2":-89.0444,"dy":0.0017,"dx":0.0017,"nx":28,"ny":28,"refTime":"2025-03-14T21:00:00:Z","depth":0,"parameterNumber":2,"parameterNumberName":"U-component_of_WINDS"},"data":[0,0,0,0,0,0,0,0,0,0,0,0,0,0,0,0,0,0,0,0,0,0,0,0,0,0,0,0,0,0,0,0,0,0,0,0,0,0,0,0,0,0,0,0,0,0,0,0,0,0,0,0,0,0,0,0,0,0,3.9367,3.9368,0,3.9454,3.9455,3.9456,3.9387,3.9384,3.9381,3.9378,3.947,3.9475,3.948,0,0,0,0,0,0,0,0,0,0,0,0,0,3.9142,3.9147,3.9367,3.9368,3.9369,3.9454,3.9455,3.9456,3.9388,3.9384,3.9381,3.9377,3.9468,3.9474,3.9481,0,0,0,0,0,0,0,0,0,0,0,0,0,3.9236,3.9148,3.9367,3.9345,3.9344,3.9454,3.9455,3.9457,3.9388,3.9384,3.938,3.9375,3.9466,3.9474,3.9481,3.9618,0,0,3.9505,3.9509,0,0,0,0,0,0,0,0,3.9231,3.9244,3.9347,3.9347,3.9346,3.9405,3.9409,3.9511,3.939,3.9372,3.9378,3.9373,3.9452,3.9461,3.9487,3.9622,3.9626,3.9506,3.9511,3.9514,3.9516,0,0,0,0,0,0,0,3.9224,3.924,3.9401,3.9349,3.9348,3.9331,3.934,3.9428,3.9436,3.9373,3.9368,3.9379,3.9451,3.948,3.9489,3.9627,3.9506,3.9513,3.9517,3.952,3.9877,3.9881,0,0,0,0,0,0,3.922,3.9235,3.9399,3.9404,3.9276,3.9339,3.9348,3.9391,3.9434,3.9437,3.9383,3.9376,3.9468,3.948,3.9491,3.9652,3.9514,3.9521,3.9526,3.9872,3.9878,3.9883,0,0,0,0,0,0,3.9215,3.9235,3.9395,3.9318,3.9337,3.9347,3.9396,3.9395,3.9423,3.9442,3.9443,3.9411,3.9465,3.9481,3.9586,3.9655,3.9525,3.9532,3.9866,3.9874,3.988,3.9976,0,0,0,0,0,0,3.9209,3.9234,3.9285,3.932,3.9342,3.9488,3.94,3.94,3.9436,3.9428,3.9468,3.9471,3.9463,3.9575,3.9594,3.9663,3.9538,3.986,3.987,3.9878,3.9967,3.9986,4.0002,0,0,0,0,0,3.9201,3.931,3.9288,3.9309,3.9407,3.9492,3.9505,3.9493,3.9442,3.9494,3.9506,3.947,3.9644,3.9586,3.9607,3.968,3.9856,3.9867,3.9877,3.9959,3.9982,4.0001,0,0,0,0,0,0,3.9284,3.9314,3.9291,3.9414,3.9451,3.9481,3.9546,3.9518,3.9571,3.9561,3.9545,3.9555,3.9665,3.9683,3.9618,3.9813,3.9742,3.9757,3.9797,3.9819,3.9836,3.9829,3.9544,0,0,0,0,0,3.9317,3.9384,3.9406,3.9513,3.9532,3.9536,3.9573,3.9561,3.9599,3.9615,3.9634,3.9674,3.9737,3.9779,3.9839,3.9969,3.9977,4.0029,4.0047,4.0061,4.0074,4.0143,4.0166,3.9918,3.9918,3.9918,0,0,3.9385,3.9409,3.9453,3.953,3.9557,3.9627,3.955,3.9627,3.9678,3.9627,3.9727,3.9743,3.9785,3.9904,3.9957,3.9922,4.0144,4.0075,4.0086,4.0092,4.0157,4.018,4.0201,3.9926,3.9924,3.9923,0,0,3.9544,3.957,3.966,3.9689,3.9731,3.9732,3.9754,3.9788,3.9796,3.9897,3.9859,3.992,4.003,4.0061,4.0091,4.0261,4.0229,4.0281,4.0372,4.044,4.0459,4.0476,4.0535,4.0557,4.0295,4.0295,4.0295,0,3.9623,3.9726,3.971,3.979,3.9824,3.978,3.9871,3.99,3.996,3.9985,3.9945,4.008,4.0106,4.023,4.0271,4.0298,4.0322,4.0276,4.0457,4.0474,4.049,4.0546,4.0569,4.0301,4.03,4.03,4.0299,0,3.982,3.9892,3.996,4.0018,4.006,4.0145,4.0143,4.0188,4.0172,4.0177,4.028,4.0309,4.0372,4.0401,4.0387,4.0523,4.05,4.0459,4.0387,4.052,4.0572,4.0594,4.0309,4.0307,4.0306,4.0304,0,0,4.0034,4.0081,4.0106,4.0131,4.0173,4.0229,4.0312,4.0373,4.0411,4.0454,4.0523,4.0616,4.0578,4.0613,4.0601,4.0661,4.0791,4.0612,4.0613,4.0643,4.0942,4.0971,4.0996,4.0771,4.0775,4.0778,4.0937,0,4.0193,4.0336,4.0325,4.046,4.0526,4.0484,4.0556,4.059,4.0598,4.0655,4.0663,4.0729,4.0675,4.0695,4.0752,4.0763,4.0851,4.0752,4.0834,4.0837,4.0823,4.1024,4.1055,4.1204,4.0958,4.0961,4.0964,0,4.0398,4.0447,4.0589,4.062,4.0647,4.0712,4.0766,4.0822,4.0859,4.086,4.0899,4.0877,4.096,4.0887,4.1001,4.0934,4.0967,4.0978,4.0983,4.0989,4.0907,4.1034,4.1252,4.1274,4.0996,4.0994,4.0992,0,4.0537,4.0639,4.0736,4.0759,4.0798,4.0845,4.0863,4.0897,4.0934,4.0982,4.1006,4.1063,4.1095,4.114,4.1134,4.1082,4.125,4.1177,4.1253,4.1253,4.1289,4.1287,4.1514,4.1313,4.1313,4.1312,4.1312,0,4.0716,4.0804,4.0798,4.0858,4.0955,4.0941,4.1038,4.1051,4.1081,4.1143,4.1111,4.1169,4.1159,4.1218,4.1214,4.1308,4.1323,4.1326,4.1324,4.1328,4.1327,4.1348,4.1337,4.1318,4.1317,4.1316,4.1315,0,4.0887,4.0887,4.099,4.1019,4.1028,4.1099,4.1123,4.118,4.1184,4.1263,4.128,4.1288,4.1355,4.1354,4.1431,4.1428,4.1543,4.153,4.153,4.1527,4.1602,4.1594,4.185,4.1882,4.1662,4.1664,4.1665,0,4.1,4.1067,4.1102,4.1141,4.1162,4.1225,4.1262,4.1251,4.1291,4.1338,4.1389,4.1453,4.1503,4.1612,4.1625,4.1683,4.167,4.1756,4.1679,4.168,4.1669,4.1665,4.1671,4.177,4.1773,4.1775,4.1776,0,4.12,4.1197,4.1251,4.1306,4.1351,4.1394,4.1434,4.1467,4.146,4.1507,4.1575,4.1614,4.1691,4.1755,4.1811,4.183,4.1802,4.1801,4.1821,4.1825,4.1822,4.1823,4.1569,4.1794,4.1793,4.1791,4.179,4.179,4.1345,4.1401,4.1434,4.1496,4.1524,4.1562,4.1615,4.1626,4.1682,4.1744,4.1734,4.181,4.1845,4.1916,4.1941,4.1999,4.1969,4.1999,4.2007,4.2014,4.2021,4.1814,4.201,4.2009,4.2009,4.2009,4.2008,0,4.1541,4.156,4.1617,4.1673,4.1721,4.169,4.1732,4.1774,4.1841,4.1876,4.1925,4.2003,4.2064,4.2081,4.214,4.2184,4.2172,4.2199,4.2195,4.22,4.2046,4.2021,4.2207,4.2207,4.2207,4.2207,4.2207,4.2207,4.1649,4.1742,4.1743,4.1849,4.1868,4.1941,4.1967,4.2001,4.2028,4.2116,4.2166,4.2176,4.2204,4.2265,4.2319,4.2323,4.2345,4.2377,4.2375,4.2231,4.2211,4.2192,4.2169,4.2383,4.2383,4.2524,4.2526,4.2527]},{"header":{"parameterUnit":"m.s-1","parameterCategory":1,"la1":30.2991,"la2":30.254,"lo1":-89.0895,"lo2":-89.0444,"dy":0.0017,"dx":0.0017,"nx":28,"ny":28,"refTime":"2025-03-14T21:00:00:Z","depth":0,"parameterNumber":3,"parameterNumberName":"V-component_of_WINDS"},"data":[0,0,0,0,0,0,0,0,0,0,0,0,0,0,0,0,0,0,0,0,0,0,0,0,0,0,0,0,0,0,0,0,0,0,0,0,0,0,0,0,0,0,0,0,0,0,0,0,0,0,0,0,0,0,0,0,0,0,2.2686,2.2687,0,2.2842,2.2844,2.2846,2.2855,2.2853,2.2851,2.285,2.3011,2.3017,2.3023,0,0,0,0,0,0,0,0,0,0,0,0,0,2.2395,2.24,2.2686,2.2688,2.269,2.2842,2.2844,2.2846,2.2855,2.2853,2.2851,2.2849,2.301,2.3017,2.3024,0,0,0,0,0,0,0,0,0,0,0,0,0,2.2533,2.2402,2.2685,2.2712,2.2716,2.2842,2.2844,2.2847,2.2856,2.2853,2.285,2.2848,2.3007,2.3016,2.3025,2.3134,0,0,2.3052,2.3056,0,0,0,0,0,0,0,0,2.2526,2.2544,2.2706,2.2711,2.2715,2.2826,2.2801,2.2943,2.2856,2.2803,2.285,2.2846,2.2952,2.2965,2.3001,2.3142,2.3149,2.3053,2.3058,2.3062,2.3065,0,0,0,0,0,0,0,2.2516,2.2537,2.2748,2.2709,2.2714,2.2717,2.2734,2.2828,2.2891,2.2807,2.2808,2.2827,2.2954,2.2992,2.3005,2.3151,2.3053,2.3061,2.3066,2.307,2.339,2.3393,0,0,0,0,0,0,2.2501,2.2529,2.2743,2.2752,2.2612,2.2724,2.2743,2.2793,2.289,2.2902,2.2829,2.2827,2.2978,2.2994,2.301,2.3145,2.3062,2.3071,2.3076,2.3387,2.339,2.3394,0,0,0,0,0,0,2.2495,2.252,2.2736,2.2641,2.2669,2.2732,2.2789,2.2798,2.2836,2.2906,2.2917,2.2856,2.2977,2.2998,2.3103,2.3151,2.3075,2.3083,2.3383,2.3388,2.3392,2.3416,0,0,0,0,0,0,2.2486,2.2518,2.256,2.2642,2.2674,2.2827,2.2792,2.2803,2.2851,2.285,2.2935,2.2946,2.2976,2.309,2.3112,2.3162,2.309,2.3379,2.3385,2.3391,2.3411,2.3421,2.3429,0,0,0,0,0,2.2476,2.256,2.2562,2.2588,2.2728,2.2829,2.2848,2.288,2.2855,2.2898,2.2943,2.2943,2.3142,2.3101,2.3126,2.3179,2.3376,2.3383,2.339,2.3407,2.3419,2.3429,0,0,0,0,0,0,2.2483,2.2572,2.2574,2.2688,2.2751,2.2831,2.2886,2.2891,2.2963,2.2959,2.2996,2.3015,2.312,2.316,2.3112,2.329,2.3256,2.3269,2.3261,2.3272,2.3281,2.327,2.3097,0,0,0,0,0,2.2497,2.2572,2.2646,2.2739,2.277,2.2822,2.2868,2.2887,2.2954,2.2981,2.3034,2.3099,2.3176,2.3226,2.3301,2.3416,2.3435,2.3465,2.3474,2.3481,2.3492,2.3556,2.3571,2.3417,2.3417,2.3417,0,0,2.2528,2.2586,2.2631,2.2741,2.2793,2.2869,2.2845,2.2927,2.2985,2.2994,2.3097,2.3137,2.3213,2.3324,2.3375,2.336,2.3538,2.349,2.3495,2.3502,2.3565,2.358,2.3593,2.3422,2.3421,2.342,0,0,2.2625,2.2676,2.2759,2.281,2.2888,2.2922,2.2942,2.3021,2.3048,2.3152,2.316,2.3229,2.3361,2.3414,2.3459,2.3574,2.3578,2.3597,2.3645,2.3707,2.3719,2.373,2.3772,2.3787,2.3608,2.3608,2.3608,0,2.2654,2.277,2.2801,2.2884,2.2932,2.2943,2.3028,2.3076,2.3174,2.3208,2.3189,2.3355,2.3406,2.353,2.3558,2.3593,2.3618,2.3589,2.3715,2.3726,2.3737,2.3777,2.3793,2.361,2.3609,2.3609,2.3609,0,2.2802,2.2882,2.294,2.3034,2.3089,2.3172,2.3217,2.3268,2.3282,2.3319,2.3424,2.3486,2.3573,2.3604,2.3619,2.373,2.3719,2.3707,2.3674,2.3753,2.3792,2.3808,2.3612,2.3612,2.3611,2.3611,0,0,2.2909,2.3018,2.3039,2.3082,2.3168,2.323,2.3314,2.3399,2.3443,2.351,2.3581,2.3692,2.3682,2.3732,2.3753,2.3807,2.3896,2.379,2.3792,2.3808,2.4023,2.4032,2.4049,2.3898,2.3901,2.3903,2.4017,0,2.3015,2.3164,2.3194,2.3323,2.3398,2.3409,2.3482,2.3542,2.3578,2.3646,2.3686,2.3764,2.3744,2.3775,2.3829,2.3873,2.394,2.3866,2.3965,2.3969,2.3948,2.407,2.408,2.4184,2.4032,2.4035,2.4037,0,2.316,2.323,2.3366,2.3442,2.3474,2.3539,2.362,2.3685,2.3754,2.3776,2.3831,2.3846,2.3934,2.3895,2.4016,2.3965,2.4008,2.4036,2.404,2.4052,2.4008,2.4086,2.4218,2.4234,2.4061,2.4059,2.4057,0,2.3224,2.3353,2.3451,2.3487,2.3578,2.3623,2.3663,2.3729,2.3778,2.3849,2.3881,2.396,2.4004,2.4066,2.4101,2.407,2.422,2.4185,2.4242,2.4241,2.4274,2.4272,2.4416,2.4299,2.4299,2.4299,2.4298,0,2.3341,2.3424,2.3481,2.3542,2.3635,2.3669,2.3761,2.3801,2.3859,2.3928,2.3942,2.4006,2.4049,2.4119,2.4148,2.4244,2.4264,2.4284,2.4291,2.4284,2.4282,2.4313,2.4308,2.4303,2.4302,2.4301,2.43,0,2.343,2.3471,2.3579,2.3656,2.3677,2.3743,2.3809,2.3868,2.3903,2.399,2.4012,2.4068,2.4151,2.4193,2.4297,2.4316,2.4425,2.4427,2.4402,2.4405,2.446,2.4455,2.4631,2.4656,2.4521,2.4522,2.4523,0,2.3502,2.3566,2.365,2.3697,2.3737,2.3813,2.3863,2.3898,2.395,2.4033,2.4083,2.4167,2.4236,2.4368,2.4418,2.4498,2.4502,2.4558,2.4514,2.4505,2.4504,2.4501,2.4508,2.4567,2.4568,2.4569,2.457,0,2.3626,2.3643,2.3715,2.3794,2.3853,2.3917,2.398,2.4018,2.4064,2.4121,2.4206,2.426,2.4366,2.4449,2.4532,2.4573,2.458,2.4583,2.4601,2.4595,2.4578,2.4589,2.4425,2.4579,2.4578,2.4578,2.4577,2.4577,2.371,2.3768,2.3835,2.3915,2.3966,2.4024,2.4084,2.4126,2.4198,2.4287,2.4303,2.4394,2.4461,2.4573,2.4617,2.4688,2.4676,2.4701,2.4708,2.4714,2.4717,2.4566,2.4703,2.4703,2.4703,2.4703,2.4702,0,2.3835,2.3879,2.3952,2.4039,2.4102,2.4102,2.4171,2.4224,2.4303,2.4365,2.4432,2.4531,2.4611,2.4667,2.4749,2.4796,2.4801,2.4816,2.4814,2.4823,2.4723,2.47,2.4811,2.4811,2.4811,2.4811,2.4811,2.4811,2.3908,2.4006,2.4031,2.4154,2.4198,2.4287,2.4327,2.4381,2.443,2.4539,2.4606,2.4642,2.4701,2.4788,2.4862,2.4876,2.4906,2.4922,2.4936,2.4842,2.483,2.482,2.4798,2.4928,2.4928,2.5031,2.5032,2.5033]}]]